Observations for Trim Market St
| Time | AQI | Temp °C | Hum % | Pres Pa | CO μg/m³ | H₂S μg/m³ | NO μg/m³ | NO₂ μg/m³ | O₃ μg/m³ | SO₂ μg/m³ | PM1 μg/m³ | PM2.5 μg/m³ | PM10 μg/m³ |
|---|---|---|---|---|---|---|---|---|---|---|---|---|---|
| Saturday 22 August 2026 | |||||||||||||
| 00:35 | 2 | 11.2 | 74 | 50,727 | 0.39 | 0 | 3.38 | 10.78 | 40.65 | 0 | 2.14 | 3.34 | 5.73 |
| 00:34 | 2 | 11.3 | 74 | 50,809 | 0.39 | 0 | 3.83 | 11.39 | 39.55 | 0 | 1.43 | 2.86 | 6.33 |
| 00:33 | 2 | 11.2 | 74 | 50,911 | 0.39 | 0 | 3.64 | 11.46 | 39.62 | 0 | 2.14 | 3.34 | 5.72 |
| 00:32 | 2 | 11.3 | 74 | 51,016 | 0.4 | 0 | 3.56 | 12.15 | 38.03 | 0 | 1.43 | 3.34 | 5.72 |
| 00:31 | 2 | 11.3 | 74 | 51,120 | 0.39 | 0 | 3.42 | 12.55 | 37.54 | 0 | 0.71 | 1.9 | 4.52 |
| 00:30 | 2 | 11.3 | 74 | 51,223 | 0.4 | 0 | 3.54 | 13.23 | 34.65 | 0 | 1.43 | 2.87 | 6.32 |
| 00:29 | 2 | 11.3 | 74 | 51,288 | 0.39 | 0 | 3.37 | 12.89 | 36.04 | 0 | 2.14 | 3.35 | 5.72 |
| 00:28 | 2 | 11.3 | 74 | 51,380 | 0.38 | 0 | 3.43 | 11.46 | 39.31 | 0 | 1.43 | 2.87 | 6.32 |
| 00:27 | 2 | 11.3 | 74 | 51,476 | 0.38 | 0 | 3.45 | 11.96 | 38.45 | 0 | 2.14 | 3.83 | 6.93 |
| 00:26 | 2 | 11.3 | 74 | 51,576 | 0.39 | 0 | 3.68 | 11.58 | 38.57 | 0 | 2.14 | 3.35 | 5.72 |
| 00:25 | 2 | 11.3 | 74 | 51,677 | 0.39 | 0 | 3.83 | 11.45 | 38.88 | 0 | 1.43 | 2.88 | 6.32 |
| 00:24 | 2 | 11.3 | 74 | 51,785 | 0.38 | 0 | 4.19 | 12.62 | 36.71 | 0 | 2.14 | 3.84 | 6.32 |
| 00:23 | 2 | 11.4 | 74 | 51,887 | 0.38 | 0 | 4.17 | 11.58 | 38.33 | 0 | 0 | 1.44 | 3.9 |
| 00:22 | 2 | 11.4 | 74 | 51,966 | 0.38 | 0 | 4.45 | 9.11 | 43.03 | 0 | 1.43 | 3.36 | 7.53 |
| 00:20 | 2 | 11.4 | 74 | 52,051 | 0.37 | 0 | 3.67 | 11.29 | 38.72 | 0 | 1.43 | 2.88 | 5.71 |
| 00:15 | 2 | 11.5 | 73 | 52,414 | 0.41 | 0 | 3.26 | 16.68 | 31.11 | 0 | 0.71 | 2.41 | 5.1 |
| 00:14 | 2 | 11.5 | 73 | 52,489 | 0.37 | 0 | 3.21 | 12.38 | 37.69 | 0 | 2.14 | 2.89 | 6.92 |
| 00:12 | 2 | 11.5 | 73 | 52,691 | 0.37 | 0 | 3.36 | 11.42 | 40.39 | 0 | 1.43 | 2.42 | 4.49 |
| 00:04 | 2 | 11.6 | 73 | 53,206 | 0.36 | 0 | 4.46 | 18.02 | 29.12 | 0 | 2.14 | 2.92 | 5.09 |
| 00:03 | 2 | 11.6 | 73 | 53,283 | 0.38 | 0 | 4.46 | 20.67 | 27.21 | 0 | 1.43 | 3.4 | 5.7 |